Location: Härggis
(46.9540°N, 8.4897°E)
Time: 20:01:56
(UTC+00:00)

Cosmos 2056 Rocket - Pass Details

Date: 27 May 2022
Orbit: 741 x 801 km, 74.0° (Epoch: 02 July)

Event Time Altitude Azimuth Distance (km) Brightness Sun altitude
Exits shadow 02:58:11 - 199° (SSW) 2,855 5.9 -6.4°
Reaches altitude 10° 02:59:40 10° 199° (SSW) 2,275 5.4 -6.2°
Maximum altitude 03:04:51 87° 111° (ESE) 772 3.6 -5.5°
Drops below altitude 10° 03:10:09 10° 23° (NNE) 2,332 7.2 -4.8°
Sets 03:12:34 0° 23° (NNE) 3,273 8.0 -4.5°
